Weather History for KINF - February, 2013

Change the Weather History Date:

Tuesday, February 12, 2013

  Actual Average (KGNV) Record (KGNV)
Temperature  
Mean Temperature 70 °F 57 °F  
Max Temperature 84 °F 69 °F 84 °F (1950)
Min Temperature 55 °F 45 °F 25 °F (2012)
Degree Days  
Heating Degree Days 0 9  
Month to date heating degree days 113  
Since 1 July heating degree days 915  
Cooling Degree Days 4 1  
Month to date cooling degree days 8  
Year to date cooling degree days 20  
Growing Degree Days 20 (Base 50)    
Moisture  
Dew Point 62 °F    
Average Humidity 81    
Maximum Humidity 100    
Minimum Humidity 45    
Precipitation  
Precipitation 0.00 in 0.11 in 1.89 in (1967)
Month to date precipitation 1.33  
Year to date precipitation 4.64  
Snow  
Snow 0.00 in 0.00 in 0.00 in ()
Month to date snowfall 0.0  
Since 1 July snowfall 0.0  
Snow Depth -    
Sea Level Pressure  
Sea Level Pressure 30.03 in    
Wind  
Wind Speed 3 mph (SSW)    
Max Wind Speed 15 mph    
Max Gust Speed 21 mph    
Visibility 6 miles    
Events Fog    
T = Trace of Precipitation, MM = Missing Value Source: NWS Daily Summary

Daily Weather History Graph

Daily Weather History Graph

Search for Another Location

Airport or City:

Trip Planner

Search our weather history database for the weather conditions in past years. The results will help you decide how hot, cold, wet, or windy it might be!

Date:

Astronomy

Feb. 12, 2013 Rise Set
Actual Time 7:09 AM EST 6:17 PM EST
Civil Twilight 6:45 AM EST 6:41 PM EST
Nautical Twilight 6:17 AM EST 7:09 PM EST
Astronomical Twilight 5:50 AM EST 7:37 PM EST
Moon 8:23 AM EST (2/12) 8:57 PM EST (2/12)
Length of Visible Light 11h 55m
Length of Day
11h 07m
Waxing Crescent, 7% of the Moon is Illuminated
Feb 12
Waxing Crescent
Feb 17
First Quarter
Feb 25
Full
Mar 4
Last Quarter
Mar 11
New

Hourly Weather History & Observations

Time (EST) Temp. Heat Index Dew Point Humidity Pressure Visibility Wind Dir Wind Speed Gust Speed Precip Events Conditions
12:15 AM 59.0 °F - 59.0 °F 100% 30.11 in 7.0 mi Calm Calm - N/A   Clear
12:35 AM 57.2 °F - 57.2 °F 100% 30.10 in 2.5 mi Calm Calm - N/A   Clear
12:55 AM 57.2 °F - 57.2 °F 100% 30.10 in 7.0 mi Calm Calm - N/A   Clear
1:15 AM 59.0 °F - 57.2 °F 94% 30.10 in 0.8 mi Calm Calm - N/A   Mostly Cloudy
1:35 AM 59.0 °F - 57.2 °F 94% 30.10 in 0.5 mi Calm Calm - N/A Fog Fog
1:55 AM 57.2 °F - 55.4 °F 94% 30.10 in 0.5 mi Calm Calm - N/A Fog Fog
2:15 AM 59.0 °F - 57.2 °F 94% 30.09 in 3.0 mi Calm Calm - N/A   Overcast
2:35 AM 55.4 °F - 55.4 °F 100% 30.09 in 0.2 mi Calm Calm - N/A Fog Fog
2:55 AM 55.4 °F - 55.4 °F 100% 30.08 in 0.2 mi Calm Calm - N/A Fog Fog
3:15 AM 55.4 °F - 55.4 °F 100% 30.08 in 0.2 mi Calm Calm - N/A Fog Fog
3:35 AM 55.4 °F - 55.4 °F 100% 30.08 in 0.2 mi Calm Calm - N/A Fog Fog
3:55 AM 55.4 °F - 55.4 °F 100% 30.08 in 0.2 mi Calm Calm - N/A Fog Fog
4:15 AM 55.4 °F - 55.4 °F 100% 30.08 in 0.2 mi Calm Calm - N/A Fog Fog
4:35 AM 55.4 °F - 55.4 °F 100% 30.07 in 0.2 mi Calm Calm - N/A Fog Fog
4:55 AM 55.4 °F - 55.4 °F 100% 30.07 in 0.2 mi Calm Calm - N/A Fog Fog
5:15 AM 57.2 °F - 57.2 °F 100% 30.08 in 0.2 mi Calm Calm - N/A Fog Fog
5:35 AM 57.2 °F - 57.2 °F 100% 30.08 in 0.2 mi Calm Calm - N/A Fog Fog
5:55 AM 57.2 °F - 57.2 °F 100% 30.08 in 0.2 mi Calm Calm - N/A Fog Fog
6:15 AM 59.0 °F - 59.0 °F 100% 30.09 in 0.2 mi Calm Calm - N/A Fog Fog
6:35 AM 59.0 °F - 59.0 °F 100% 30.09 in 0.2 mi Calm Calm - N/A Fog Fog
6:55 AM 59.0 °F - 59.0 °F 100% 30.09 in 0.2 mi Calm Calm - N/A Fog Fog
7:15 AM 59.0 °F - 59.0 °F 100% 30.09 in 0.2 mi Calm Calm - N/A Fog Fog
7:35 AM 60.8 °F - 60.8 °F 100% 30.10 in 0.2 mi Calm Calm - N/A Fog Fog
7:55 AM 62.6 °F - 62.6 °F 100% 30.10 in 0.2 mi Calm Calm - N/A Fog Fog
8:15 AM 64.4 °F - 62.6 °F 94% 30.11 in 0.2 mi Calm Calm - N/A Fog Fog
8:35 AM 64.4 °F - 64.4 °F 100% 30.11 in 2.0 mi South 5.8 mph - N/A   Overcast
8:55 AM 66.2 °F - 66.2 °F 100% 30.11 in 4.0 mi SSW 8.1 mph - N/A   Overcast
9:15 AM 66.2 °F - 66.2 °F 100% 30.11 in 4.0 mi SSW 6.9 mph - N/A   Overcast
9:35 AM 68.0 °F - 68.0 °F 100% 30.11 in 7.0 mi SSW 5.8 mph - N/A   Overcast
9:55 AM 68.0 °F - 68.0 °F 100% 30.11 in 10.0 mi SSW 8.1 mph - N/A   Overcast
10:15 AM 69.8 °F - 68.0 °F 94% 30.11 in 10.0 mi SSW 5.8 mph - N/A   Overcast
10:35 AM 73.4 °F - 66.2 °F 78% 30.11 in 10.0 mi SSW 11.5 mph 16.1 mph N/A   Overcast
10:55 AM 73.4 °F - 64.4 °F 73% 30.10 in 10.0 mi SSW 13.8 mph 18.4 mph N/A   Overcast
11:15 AM 77.0 °F - 64.4 °F 65% 30.10 in 10.0 mi SSW 11.5 mph 20.7 mph N/A   Mostly Cloudy
11:35 AM 77.0 °F - 64.4 °F 65% 30.09 in 10.0 mi SSW 11.5 mph 16.1 mph N/A   Scattered Clouds
11:55 AM 78.8 °F - 64.4 °F 61% 30.08 in 10.0 mi SSW 9.2 mph - N/A   Scattered Clouds
12:15 PM 80.6 °F 82.3 °F 64.4 °F 58% 30.06 in 10.0 mi South 12.7 mph 17.3 mph N/A   Scattered Clouds
12:35 PM 80.6 °F 81.8 °F 62.6 °F 54% 30.05 in 10.0 mi South 15.0 mph 19.6 mph N/A   Mostly Cloudy
12:55 PM 82.4 °F 83.4 °F 62.6 °F 51% 30.03 in 10.0 mi WSW 8.1 mph 17.3 mph N/A   Scattered Clouds
1:15 PM 82.4 °F 83.4 °F 62.6 °F 51% 30.02 in 10.0 mi SSW 13.8 mph 19.6 mph N/A   Scattered Clouds
1:35 PM 84.2 °F 84.4 °F 60.8 °F 45% 30.00 in 10.0 mi SSW 10.4 mph 18.4 mph N/A   Scattered Clouds
1:55 PM 82.4 °F 82.9 °F 60.8 °F 48% 29.99 in 10.0 mi SSW 9.2 mph - N/A   Scattered Clouds
2:15 PM 82.4 °F 83.4 °F 62.6 °F 51% 29.99 in 10.0 mi SSW 4.6 mph - N/A   Scattered Clouds
2:35 PM 80.6 °F 81.5 °F 60.8 °F 51% 29.98 in 10.0 mi SSW 6.9 mph - N/A   Overcast
2:55 PM 82.4 °F 82.9 °F 60.8 °F 48% 29.98 in 10.0 mi SSW 6.9 mph - N/A   Scattered Clouds
3:15 PM 80.6 °F 81.8 °F 62.6 °F 54% 29.98 in 10.0 mi WSW 5.8 mph - N/A   Mostly Cloudy
3:35 PM 82.4 °F 83.4 °F 62.6 °F 51% 29.96 in 10.0 mi WSW 5.8 mph - N/A   Mostly Cloudy
3:55 PM 82.4 °F 83.9 °F 64.4 °F 54% 29.96 in 10.0 mi WSW 5.8 mph - N/A   Scattered Clouds
4:15 PM 80.6 °F 82.3 °F 64.4 °F 58% 29.96 in 10.0 mi WSW 5.8 mph - N/A   Scattered Clouds
4:35 PM 80.6 °F 81.8 °F 62.6 °F 54% 29.96 in 10.0 mi SSW 6.9 mph - N/A   Mostly Cloudy
4:55 PM 78.8 °F - 62.6 °F 57% 29.95 in 10.0 mi SW 4.6 mph - N/A   Mostly Cloudy
5:15 PM 80.6 °F 81.8 °F 62.6 °F 54% 29.95 in 10.0 mi SSW 9.2 mph - N/A   Overcast
5:35 PM 78.8 °F - 64.4 °F 61% 29.96 in 10.0 mi SSW 6.9 mph - N/A   Overcast
5:55 PM 78.8 °F - 64.4 °F 61% 29.95 in 10.0 mi SW 6.9 mph - N/A   Overcast
6:15 PM 77.0 °F - 62.6 °F 61% 29.96 in 10.0 mi SSW 9.2 mph - N/A   Mostly Cloudy
6:35 PM 77.0 °F - 62.6 °F 61% 29.95 in 7.0 mi SSW 8.1 mph - N/A   Scattered Clouds
6:55 PM 75.2 °F - 64.4 °F 69% 29.95 in 10.0 mi SSW 6.9 mph - N/A   Scattered Clouds
7:15 PM 73.4 °F - 64.4 °F 73% 29.96 in 10.0 mi SSW 5.8 mph - N/A   Clear
7:35 PM 73.4 °F - 64.4 °F 73% 29.96 in 10.0 mi SSW 5.8 mph - N/A   Clear
7:55 PM 73.4 °F - 64.4 °F 73% 29.96 in 10.0 mi SSW 4.6 mph - N/A   Clear
8:15 PM 71.6 °F - 64.4 °F 78% 29.96 in 10.0 mi SSW 6.9 mph - N/A   Clear
8:35 PM 71.6 °F - 64.4 °F 78% 29.96 in 10.0 mi SSW 6.9 mph - N/A   Clear
8:55 PM 71.6 °F - 64.4 °F 78% 29.96 in 10.0 mi SSW 5.8 mph - N/A   Clear
9:15 PM 69.8 °F - 64.4 °F 83% 29.97 in 10.0 mi SSW 5.8 mph - N/A   Clear
9:35 PM 69.8 °F - 66.2 °F 88% 29.97 in 10.0 mi SSW 6.9 mph - N/A   Scattered Clouds
9:55 PM 69.8 °F - 66.2 °F 88% 29.98 in 10.0 mi SSW 5.8 mph - N/A   Scattered Clouds
10:15 PM 69.8 °F - 66.2 °F 88% 29.98 in 10.0 mi SSW 5.8 mph - N/A   Scattered Clouds
10:35 PM 69.8 °F - 68.0 °F 94% 29.97 in 10.0 mi SSW 5.8 mph - N/A   Mostly Cloudy
10:55 PM 69.8 °F - 68.0 °F 94% 29.96 in 10.0 mi SSW 8.1 mph - N/A   Overcast
11:15 PM 69.8 °F - 68.0 °F 94% 29.96 in 10.0 mi South 10.4 mph - N/A   Overcast
11:35 PM 69.8 °F - 68.0 °F 94% 29.96 in 10.0 mi SSW 10.4 mph - N/A   Overcast
11:55 PM 69.8 °F - 68.0 °F 94% 29.95 in 10.0 mi SSW 6.9 mph - N/A   Overcast